Вернуться в каталог

QIANFAN-8

АктивенСвязьPO
NORAD 60386·PAYLOAD·🇨🇳 China

Запущен Aug 6, 2024 с Taiyuan Satellite Launch Center

Loading…

Ближайшие Пролёты (ближайшие 24 часа)

TLE

СвежийSource: Space-Track

Эпоха: Sep 14, 2026, 14:15 UTC

1 60386U 24140H   26257.59375679  .00000016  00000-0  55430-5 0  9996
2 60386  88.9671 270.6418 0018492 117.9963 242.3062 13.51026032104593

Отслеживайте QIANFAN-8 в реальном времени с AllMySat

Download on the App Store